星链-32088 (STARLINK-32088 )

导读 | 星芒AI

STARLINK-32088 是 SpaceX Starlink 卫星互联网项目中的一颗低轨卫星,属于第二批部署的星链卫星之一。该卫星于2022年发射,运行在约550公里高度的近地轨道,旨在为全球用户提供高速、低延迟的宽带互联网服务。Starlink 项目通过部署数千颗卫星,构建覆盖全球的通信网络,特别服务于偏远和网络基础设施薄弱的地区。STARLINK-32088 采用先进推进系统和激光通信技术,有助于提升网络稳定性和数据传输效率。

基本信息
目录编号:
59693
目录名称:
STARLINK-32088
国际标识:
2024-086M
轨道中心:
EARTH
卫星名称:
星链-32088
卫星全名:
星链-32088 (STARLINK-32088 )
卫星状态:
在轨 (已飞行544 天)
发射日期:
2024-05-08 UTC
国别 :
美国 (US)
星等 :
--
轨道信息
数据来源 国际轨道数据 AOE轨道数据
星历时间 2025-11-02T00:34:17+0800
1天前
查看轨道信息
2025-11-02T10:00:00+0800
1天前
查看轨道信息
半长轴 6861.214km 6861.225km
偏心率 0.0000156 0.0001131
轨道倾角 43.000° 43.005°
近地点辐角 345.528° 249.211°
升交点赤经 55.218° 53.000°
平近点角 14.557° 113.872°
近地点 482.971km 482.313km
远地点 483.187km 483.867km
周期 94.267分钟 94.268分钟
每日圈数 15.275707 15.275672
详细信息
固有亮度:
5
最大亮度:
1.5
卫星平台:
Starlink v2.0 mini
覆盖范围:
全球
运营商:
太空探索技术公司
运营商所在国:
美国
制造商(研发单位):
太空探索技术公司
制造商所在国:
美国
使用方式:
暂无
卫星简介
星链(Starlink)计划是由太空探索技术公司(SpaceX)提出的一个巨型低轨卫星互联网星座项目,计划在2019年至2024年间在太空搭建由约1.2万颗卫星组成的“星链”网络,其中1584颗将部署在地球上空550千米处的近地轨道,并从2020年开始工作。该卫星仍在工作。
2D轨道图
3D轨道图
轨道高度分析图
轨道倾角分析图
轨道综合分析图
查看轨道综合分析图